Multibeam Report for NF-11-04-NC


Ship Name: Nancy Foster
Chief Scientist: Ross, Steve W.
University of North Carolina at Wilmington
Source Organization: National Oceanic and Atmospheric Administration (NOAA)
Start Date: 2011-06-04
End Date: 2011-06-17


View ISO Metadata

Visit the full NCEI Bathymetry Viewer


Multibeam Bathymetry

Cruise Details

Project: Atlantic Deep-Water Canyons
Instrument: Simrad EM1002 and Reson 7125

Data Quality

Number of Files: 282
Number of Records: 715742
BATHYMETRY DATA Quantity Percentage
Number of Beams 79447362 100%
Number of Good Beams 77741184 97.85%
Number of Zero Beams 1706178 2.15%
Number of Flagged Beams 0 0%
AMPLITUDE DATA Quantity Percentage
Number of Beams 79447362 100%
Number of Good Beams 77741184 97.85%
Number of Zero Beams 1706178 2.15%
Number of Flagged Beams 0 0%
SIDESCAN DATA Quantity Percentage
Number of Pixels 732919808 100%
Number of Good Pixels 524248063 71.53%
Number of Zero Pixels 0 0%
Number of Flagged Pixels 208671745 28.47%

Navigation Totals

Total Time: 170.4908 hours
Total Track Length: 2371.5942 km
Average Speed: 13.91 km/hr (7.5108 knots)

Cruise Bounds

Northern Extent: 38.303
Southern Extent: 33.4245
Western Extent: -76.8575
Eastern Extent: -73.6987

Limits

Minimum Sonar Depth 2.09 Maximum Sonar Depth 5.19
Minimum Altitude 0 Maximum Altitude 1205.48
Minimum Depth 14.37 Maximum Depth 1232.5601
Minimum Amplitude 0 Maximum Amplitude 63.5
Minimum Sidescan 0 Maximum Sidescan 63

File Information

Full Resolution Bathymetry as collected (raw): 279

Files File Size Description
0001_20110605_064259_raw.all.mb56.gz 2.74MB Simrad multibeam vendor format
0001_20110605_073618_raw.all.mb56.gz 143.2KB Simrad multibeam vendor format
0001_20110605_074307_raw.all.mb56.gz 0.84MB Simrad multibeam vendor format
0002_20110605_074457_raw.all.mb56.gz 6.82MB Simrad multibeam vendor format
0003_20110605_081744_raw.all.mb56.gz 6.58MB Simrad multibeam vendor format
0004_20110605_082948_raw.all.mb56.gz 267.2KB Simrad multibeam vendor format
0005_20110605_094018_raw.all.mb56.gz 33.18MB Simrad multibeam vendor format
0006_20110605_104018_raw.all.mb56.gz 34.11MB Simrad multibeam vendor format
0007_20110605_114018_raw.all.mb56.gz 21.36MB Simrad multibeam vendor format
0008_20110605_124019_raw.all.mb56.gz 26.31MB Simrad multibeam vendor format
0009_20110605_134019_raw.all.mb56.gz 24.83MB Simrad multibeam vendor format
0010_20110605_144020_raw.all.mb56.gz 10.06MB Simrad multibeam vendor format
0011_20110605_165135_raw.all.mb56.gz 19.23MB Simrad multibeam vendor format
0012_20110605_175004_raw.all.mb56.gz 8.78MB Simrad multibeam vendor format
0013_20110605_194744_raw.all.mb56.gz 7.91MB Simrad multibeam vendor format
0014_20110605_204617_raw.all.mb56.gz 1.62MB Simrad multibeam vendor format
0015_20110605_212034_raw.all.mb56.gz 13.72MB Simrad multibeam vendor format
0016_20110605_222035_raw.all.mb56.gz 14.78MB Simrad multibeam vendor format
0017_20110605_232035_raw.all.mb56.gz 12.15MB Simrad multibeam vendor format
0018_20110606_000254_raw.all.mb56.gz 25.72MB Simrad multibeam vendor format
0019_20110606_010254_raw.all.mb56.gz 34.80MB Simrad multibeam vendor format
0020_20110606_020255_raw.all.mb56.gz 43.30MB Simrad multibeam vendor format
0021_20110606_030255_raw.all.mb56.gz 8.25MB Simrad multibeam vendor format
0022_20110606_031509_raw.all.mb56.gz 12.64MB Simrad multibeam vendor format
0023_20110606_033527_raw.all.mb56.gz 6.80MB Simrad multibeam vendor format
0024_20110606_034930_raw.all.mb56.gz 24.15MB Simrad multibeam vendor format
0026_20110606_043116_raw.all.mb56.gz 10.06MB Simrad multibeam vendor format
0027_20110606_044725_raw.all.mb56.gz 18.89MB Simrad multibeam vendor format
0028_20110606_051654_raw.all.mb56.gz 6.57MB Simrad multibeam vendor format
0029_20110606_052748_raw.all.mb56.gz 30.00MB Simrad multibeam vendor format
0030_20110606_062749_raw.all.mb56.gz 2.54MB Simrad multibeam vendor format
0031_20110606_063427_raw.all.mb56.gz 26.20MB Simrad multibeam vendor format
0032_20110606_073427_raw.all.mb56.gz 16.73MB Simrad multibeam vendor format
0033_20110606_080131_raw.all.mb56.gz 41.20MB Simrad multibeam vendor format
0034_20110606_090131_raw.all.mb56.gz 22.86MB Simrad multibeam vendor format
0035_20110606_093418_raw.all.mb56.gz 33.68MB Simrad multibeam vendor format
0036_20110606_102116_raw.all.mb56.gz 36.87MB Simrad multibeam vendor format
0037_20110606_112116_raw.all.mb56.gz 34.70MB Simrad multibeam vendor format
0038_20110606_121311_raw.all.mb56.gz 40.01MB Simrad multibeam vendor format
0039_20110606_131311_raw.all.mb56.gz 31.25MB Simrad multibeam vendor format
0040_20110606_140535_raw.all.mb56.gz 23.47MB Simrad multibeam vendor format
0041_20110606_143916_raw.all.mb56.gz 6.00MB Simrad multibeam vendor format
0042_20110606_144817_raw.all.mb56.gz 3.15MB Simrad multibeam vendor format
0043_20110606_145317_raw.all.mb56.gz 39.61MB Simrad multibeam vendor format
0044_20110606_155318_raw.all.mb56.gz 23.96MB Simrad multibeam vendor format
0045_20110606_163142_raw.all.mb56.gz 2.26MB Simrad multibeam vendor format
0046_20110606_164357_raw.all.mb56.gz 4.93MB Simrad multibeam vendor format
0047_20110606_165145_raw.all.mb56.gz 36.44MB Simrad multibeam vendor format
0048_20110606_175145_raw.all.mb56.gz 35.44MB Simrad multibeam vendor format
0049_20110606_185146_raw.all.mb56.gz 35.69MB Simrad multibeam vendor format
0050_20110606_195146_raw.all.mb56.gz 30.80MB Simrad multibeam vendor format
0051_20110606_220013_raw.all.mb56.gz 34.05MB Simrad multibeam vendor format
0052_20110606_230013_raw.all.mb56.gz 8.83MB Simrad multibeam vendor format
0053_20110606_234154_raw.all.mb56.gz 13.76MB Simrad multibeam vendor format
0054_20110607_000015_raw.all.mb56.gz 40.54MB Simrad multibeam vendor format
0055_20110607_010016_raw.all.mb56.gz 33.68MB Simrad multibeam vendor format
0056_20110607_020016_raw.all.mb56.gz 8.71MB Simrad multibeam vendor format
0057_20110607_024100_raw.all.mb56.gz 17.65MB Simrad multibeam vendor format
0058_20110607_034100_raw.all.mb56.gz 10.62MB Simrad multibeam vendor format
0059_20110607_051051_raw.all.mb56.gz 33.31MB Simrad multibeam vendor format
0060_20110607_061051_raw.all.mb56.gz 20.76MB Simrad multibeam vendor format
0061_20110607_064806_raw.all.mb56.gz 42.45MB Simrad multibeam vendor format
0062_20110607_074806_raw.all.mb56.gz 12.42MB Simrad multibeam vendor format
0063_20110607_080512_raw.all.mb56.gz 32.78MB Simrad multibeam vendor format
0064_20110607_090512_raw.all.mb56.gz 21.50MB Simrad multibeam vendor format
0065_20110607_100015_raw.all.mb56.gz 4.56MB Simrad multibeam vendor format
0066_20110607_102545_raw.all.mb56.gz 13.50MB Simrad multibeam vendor format
0067_20110607_112545_raw.all.mb56.gz 27.73MB Simrad multibeam vendor format
0068_20110607_122546_raw.all.mb56.gz 5.54MB Simrad multibeam vendor format
0069_20110607_123831_raw.all.mb56.gz 31.11MB Simrad multibeam vendor format
0070_20110607_133831_raw.all.mb56.gz 1.30MB Simrad multibeam vendor format
0071_20110607_145841_raw.all.mb56.gz 11.66MB Simrad multibeam vendor format
0072_20110607_155842_raw.all.mb56.gz 13.1KB Simrad multibeam vendor format
0073_20110607_160743_raw.all.mb56.gz 12.31MB Simrad multibeam vendor format
0074_20110607_170743_raw.all.mb56.gz 31.59MB Simrad multibeam vendor format
0075_20110607_180744_raw.all.mb56.gz 2.66MB Simrad multibeam vendor format
0076_20110607_181620_raw.all.mb56.gz 38.41MB Simrad multibeam vendor format
0077_20110607_191620_raw.all.mb56.gz 17.61MB Simrad multibeam vendor format
0078_20110607_201810_raw.all.mb56.gz 27.21MB Simrad multibeam vendor format
0079_20110607_211810_raw.all.mb56.gz 21.62MB Simrad multibeam vendor format
0080_20110607_215533_raw.all.mb56.gz 31.70MB Simrad multibeam vendor format
0081_20110607_234305_raw.all.mb56.gz 13.71MB Simrad multibeam vendor format
0082_20110608_000506_raw.all.mb56.gz 0.68MB Simrad multibeam vendor format
0083_20110608_000845_raw.all.mb56.gz 36.35MB Simrad multibeam vendor format
0084_20110608_010845_raw.all.mb56.gz 5.87MB Simrad multibeam vendor format
0085_20110608_012243_raw.all.mb56.gz 31.16MB Simrad multibeam vendor format
0086_20110608_022212_raw.all.mb56.gz 26.84MB Simrad multibeam vendor format
0087_20110608_031830_raw.all.mb56.gz 17.49MB Simrad multibeam vendor format
0088_20110608_040114_raw.all.mb56.gz 18.54MB Simrad multibeam vendor format
0089_20110608_043927_raw.all.mb56.gz 25.03MB Simrad multibeam vendor format
0090_20110608_052239_raw.all.mb56.gz 2.91MB Simrad multibeam vendor format
0091_20110608_055106_raw.all.mb56.gz 19.27MB Simrad multibeam vendor format
0092_20110608_062617_raw.all.mb56.gz 19.79MB Simrad multibeam vendor format
0093_20110608_070319_raw.all.mb56.gz 6.44MB Simrad multibeam vendor format
0094_20110608_082004_raw.all.mb56.gz 3.38MB Simrad multibeam vendor format
0095_20110608_083238_raw.all.mb56.gz 7.09MB Simrad multibeam vendor format
0096_20110608_090556_raw.all.mb56.gz 3.51MB Simrad multibeam vendor format
0097_20110608_092730_raw.all.mb56.gz 13.65MB Simrad multibeam vendor format
0098_20110608_101305_raw.all.mb56.gz 24.04MB Simrad multibeam vendor format
0099_20110608_110435_raw.all.mb56.gz 4.10MB Simrad multibeam vendor format
0100_20110608_112313_raw.all.mb56.gz 1.35MB Simrad multibeam vendor format
0101_20110608_112612_raw.all.mb56.gz 8.04MB Simrad multibeam vendor format
0102_20110608_115147_raw.all.mb56.gz 13.91MB Simrad multibeam vendor format
0103_20110608_121926_raw.all.mb56.gz 15.92MB Simrad multibeam vendor format
0104_20110608_124542_raw.all.mb56.gz 6.61MB Simrad multibeam vendor format
0105_20110608_130135_raw.all.mb56.gz 2.10MB Simrad multibeam vendor format
0106_20110608_131048_raw.all.mb56.gz 3.63MB Simrad multibeam vendor format
0107_20110608_133737_raw.all.mb56.gz 11.08MB Simrad multibeam vendor format
0108_20110608_141127_raw.all.mb56.gz 11.58MB Simrad multibeam vendor format
0109_20110608_151127_raw.all.mb56.gz 9.13MB Simrad multibeam vendor format
0111_20110608_180040_raw.all.mb56.gz 12.41MB Simrad multibeam vendor format
0112_20110608_190041_raw.all.mb56.gz 2.22MB Simrad multibeam vendor format
0113_20110608_191903_raw.all.mb56.gz 14.51MB Simrad multibeam vendor format
0114_20110608_201904_raw.all.mb56.gz 12.01MB Simrad multibeam vendor format
0115_20110608_211902_raw.all.mb56.gz 12.37MB Simrad multibeam vendor format
0116_20110608_221903_raw.all.mb56.gz 3.36MB Simrad multibeam vendor format
0117_20110608_224603_raw.all.mb56.gz 13.54MB Simrad multibeam vendor format
0118_20110608_234603_raw.all.mb56.gz 3.60MB Simrad multibeam vendor format
0119_20110609_000000_raw.all.mb56.gz 16.00MB Simrad multibeam vendor format
0120_20110609_010001_raw.all.mb56.gz 19.47MB Simrad multibeam vendor format
0121_20110609_020001_raw.all.mb56.gz 5.00MB Simrad multibeam vendor format
0122_20110609_032652_raw.all.mb56.gz 15.92MB Simrad multibeam vendor format
0123_20110609_040845_raw.all.mb56.gz 22.21MB Simrad multibeam vendor format
0124_20110609_050846_raw.all.mb56.gz 20.61MB Simrad multibeam vendor format
0125_20110609_060846_raw.all.mb56.gz 21.57MB Simrad multibeam vendor format
0126_20110609_070446_raw.all.mb56.gz 2.17MB Simrad multibeam vendor format
0127_20110609_070915_raw.all.mb56.gz 24.37MB Simrad multibeam vendor format
0128_20110609_080916_raw.all.mb56.gz 22.83MB Simrad multibeam vendor format
0129_20110609_090916_raw.all.mb56.gz 26.84MB Simrad multibeam vendor format
0130_20110609_100700_raw.all.mb56.gz 22.78MB Simrad multibeam vendor format
0131_20110609_105922_raw.all.mb56.gz 414.5KB Simrad multibeam vendor format
0132_20110609_110113_raw.all.mb56.gz 29.16MB Simrad multibeam vendor format
0134_20110609_120114_raw.all.mb56.gz 4.22MB Simrad multibeam vendor format
0135_20110609_121053_raw.all.mb56.gz 4.47MB Simrad multibeam vendor format
0136_20110609_122318_raw.all.mb56.gz 14.13MB Simrad multibeam vendor format
0137_20110609_132310_raw.all.mb56.gz 11.92MB Simrad multibeam vendor format
0138_20110609_141834_raw.all.mb56.gz 1.41MB Simrad multibeam vendor format
0139_20110609_142337_raw.all.mb56.gz 9.77MB Simrad multibeam vendor format
0140_20110609_145544_raw.all.mb56.gz 3.82MB Simrad multibeam vendor format
0141_20110609_150352_raw.all.mb56.gz 22.45MB Simrad multibeam vendor format
0142_20110609_160352_raw.all.mb56.gz 2.00MB Simrad multibeam vendor format
0143_20110609_162043_raw.all.mb56.gz 0.63MB Simrad multibeam vendor format
0144_20110610_000548_raw.all.mb56.gz 26.67MB Simrad multibeam vendor format
0145_20110610_005849_raw.all.mb56.gz 3.60MB Simrad multibeam vendor format
0146_20110610_012525_raw.all.mb56.gz 21.91MB Simrad multibeam vendor format
0147_20110610_022525_raw.all.mb56.gz 15.78MB Simrad multibeam vendor format
0148_20110610_031720_raw.all.mb56.gz 8.74MB Simrad multibeam vendor format
0149_20110610_041144_raw.all.mb56.gz 2.60MB Simrad multibeam vendor format
0150_20110610_042214_raw.all.mb56.gz 4.01MB Simrad multibeam vendor format
0151_20110610_043233_raw.all.mb56.gz 7.09MB Simrad multibeam vendor format
0152_20110610_045049_raw.all.mb56.gz 20.82MB Simrad multibeam vendor format
0153_20110610_055049_raw.all.mb56.gz 13.25MB Simrad multibeam vendor format
0154_20110610_062621_raw.all.mb56.gz 10.05MB Simrad multibeam vendor format
0155_20110610_064541_raw.all.mb56.gz 9.39MB Simrad multibeam vendor format
0156_20110610_070631_raw.all.mb56.gz 4.03MB Simrad multibeam vendor format
0157_20110610_071438_raw.all.mb56.gz 23.37MB Simrad multibeam vendor format
0158_20110610_081438_raw.all.mb56.gz 29.86MB Simrad multibeam vendor format
0159_20110610_091439_raw.all.mb56.gz 29.69MB Simrad multibeam vendor format
0160_20110610_101439_raw.all.mb56.gz 7.55MB Simrad multibeam vendor format
0161_20110610_103627_raw.all.mb56.gz 30.31MB Simrad multibeam vendor format
0162_20110610_113627_raw.all.mb56.gz 32.24MB Simrad multibeam vendor format
0164_20110610_125512_raw.all.mb56.gz 12.38MB Simrad multibeam vendor format
0167_20110610_142209_raw.all.mb56.gz 23.58MB Simrad multibeam vendor format
0168_20110610_152211_raw.all.mb56.gz 11.76MB Simrad multibeam vendor format
0169_20110610_154914_raw.all.mb56.gz 31.81MB Simrad multibeam vendor format
0170_20110610_164914_raw.all.mb56.gz 25.46MB Simrad multibeam vendor format
0171_20110610_174915_raw.all.mb56.gz 33.81MB Simrad multibeam vendor format
0172_20110610_184915_raw.all.mb56.gz 31.23MB Simrad multibeam vendor format
0173_20110610_195559_raw.all.mb56.gz 12.32MB Simrad multibeam vendor format
0174_20110610_201707_raw.all.mb56.gz 35.18MB Simrad multibeam vendor format
0175_20110610_211708_raw.all.mb56.gz 23.71MB Simrad multibeam vendor format
0176_20110610_221708_raw.all.mb56.gz 24.77MB Simrad multibeam vendor format
0177_20110610_231708_raw.all.mb56.gz 31.68MB Simrad multibeam vendor format
0178_20110611_001709_raw.all.mb56.gz 12.28MB Simrad multibeam vendor format
0179_20110611_015947_raw.all.mb56.gz 28.54MB Simrad multibeam vendor format
0180_20110611_025948_raw.all.mb56.gz 13.62MB Simrad multibeam vendor format
0181_20110611_032058_raw.all.mb56.gz 36.38MB Simrad multibeam vendor format
0182_20110611_042059_raw.all.mb56.gz 4.81MB Simrad multibeam vendor format
0183_20110611_044437_raw.all.mb56.gz 25.30MB Simrad multibeam vendor format
0184_20110611_054437_raw.all.mb56.gz 13.42MB Simrad multibeam vendor format
0185_20110611_061128_raw.all.mb56.gz 4.44MB Simrad multibeam vendor format
0186_20110611_061851_raw.all.mb56.gz 8.17MB Simrad multibeam vendor format
0187_20110611_063410_raw.all.mb56.gz 15.92MB Simrad multibeam vendor format
0188_20110611_073410_raw.all.mb56.gz 1.27MB Simrad multibeam vendor format
0189_20110611_075502_raw.all.mb56.gz 18.10MB Simrad multibeam vendor format
0190_20110611_085503_raw.all.mb56.gz 16.33MB Simrad multibeam vendor format
0191_20110611_093015_raw.all.mb56.gz 1.02MB Simrad multibeam vendor format
0192_20110611_093151_raw.all.mb56.gz 30.50MB Simrad multibeam vendor format
0193_20110611_103152_raw.all.mb56.gz 7.25MB Simrad multibeam vendor format
0194_20110611_111117_raw.all.mb56.gz 20.99MB Simrad multibeam vendor format
0195_20110611_121117_raw.all.mb56.gz 13.43MB Simrad multibeam vendor format
0196_20110611_123909_raw.all.mb56.gz 3.08MB Simrad multibeam vendor format
0197_20110611_124606_raw.all.mb56.gz 4.20MB Simrad multibeam vendor format
0198_20110611_125723_raw.all.mb56.gz 12.70MB Simrad multibeam vendor format
0199_20110611_132515_raw.all.mb56.gz 27.47MB Simrad multibeam vendor format
0200_20110611_142515_raw.all.mb56.gz 7.01MB Simrad multibeam vendor format
0201_20110611_155908_raw.all.mb56.gz 20.59MB Simrad multibeam vendor format
0202_20110611_165908_raw.all.mb56.gz 21.00MB Simrad multibeam vendor format
0203_20110611_173608_raw.all.mb56.gz 30.14MB Simrad multibeam vendor format
0204_20110611_184021_raw.all.mb56.gz 18.83MB Simrad multibeam vendor format
0205_20110611_193531_raw.all.mb56.gz 26.06MB Simrad multibeam vendor format
0206_20110611_203531_raw.all.mb56.gz 39.82MB Simrad multibeam vendor format
0207_20110611_215015_raw.all.mb56.gz 473.3KB Simrad multibeam vendor format
0208_20110611_220039_raw.all.mb56.gz 5.17MB Simrad multibeam vendor format
0209_20110611_224001_raw.all.mb56.gz 10.90MB Simrad multibeam vendor format
0210_20110611_234216_raw.all.mb56.gz 9.26MB Simrad multibeam vendor format
0211_20110612_000000_raw.all.mb56.gz 32.38MB Simrad multibeam vendor format
0212_20110612_010000_raw.all.mb56.gz 5.92MB Simrad multibeam vendor format
0213_20110612_011455_raw.all.mb56.gz 34.42MB Simrad multibeam vendor format
0214_20110612_021455_raw.all.mb56.gz 12.96MB Simrad multibeam vendor format
0215_20110612_024428_raw.all.mb56.gz 36.28MB Simrad multibeam vendor format
0216_20110612_034428_raw.all.mb56.gz 16.47MB Simrad multibeam vendor format
0217_20110612_041658_raw.all.mb56.gz 36.70MB Simrad multibeam vendor format
0218_20110612_051659_raw.all.mb56.gz 14.28MB Simrad multibeam vendor format
0219_20110612_055832_raw.all.mb56.gz 37.09MB Simrad multibeam vendor format
0220_20110612_065833_raw.all.mb56.gz 15.20MB Simrad multibeam vendor format
0221_20110612_072839_raw.all.mb56.gz 37.50MB Simrad multibeam vendor format
0222_20110612_082840_raw.all.mb56.gz 15.38MB Simrad multibeam vendor format
0223_20110612_090007_raw.all.mb56.gz 37.79MB Simrad multibeam vendor format
0224_20110612_100007_raw.all.mb56.gz 16.85MB Simrad multibeam vendor format
0225_20110612_103501_raw.all.mb56.gz 37.35MB Simrad multibeam vendor format
0226_20110612_113437_raw.all.mb56.gz 18.67MB Simrad multibeam vendor format
0227_20110612_135714_raw.all.mb56.gz 5.18MB Simrad multibeam vendor format
0228_20110612_140514_raw.all.mb56.gz 13.19MB Simrad multibeam vendor format
0229_20110612_143113_raw.all.mb56.gz 17.53MB Simrad multibeam vendor format
0230_20110612_150249_raw.all.mb56.gz 15.68MB Simrad multibeam vendor format
0231_20110612_153307_raw.all.mb56.gz 18.34MB Simrad multibeam vendor format
0232_20110612_161821_raw.all.mb56.gz 4.32MB Simrad multibeam vendor format
0233_20110612_163623_raw.all.mb56.gz 30.60MB Simrad multibeam vendor format
0234_20110612_190055_raw.all.mb56.gz 39.66MB Simrad multibeam vendor format
0235_20110612_200852_raw.all.mb56.gz 37.54MB Simrad multibeam vendor format
0236_20110612_210853_raw.all.mb56.gz 1.08MB Simrad multibeam vendor format
0237_20110612_211458_raw.all.mb56.gz 33.74MB Simrad multibeam vendor format
0238_20110612_221459_raw.all.mb56.gz 1.54MB Simrad multibeam vendor format
0239_20110612_222407_raw.all.mb56.gz 27.18MB Simrad multibeam vendor format
0240_20110612_232016_raw.all.mb56.gz 2.09MB Simrad multibeam vendor format
0241_20110612_233443_raw.all.mb56.gz 12.54MB Simrad multibeam vendor format
0243_20110613_000807_raw.all.mb56.gz 14.67MB Simrad multibeam vendor format
0244_20110613_004916_raw.all.mb56.gz 16.43MB Simrad multibeam vendor format
0245_20110613_014916_raw.all.mb56.gz 2.22MB Simrad multibeam vendor format
0246_20110613_020450_raw.all.mb56.gz 7.16MB Simrad multibeam vendor format
0247_20110613_033410_raw.all.mb56.gz 9.18MB Simrad multibeam vendor format
0248_20110613_041709_raw.all.mb56.gz 17.43MB Simrad multibeam vendor format
0249_20110613_053709_raw.all.mb56.gz 21.37MB Simrad multibeam vendor format
0250_20110613_063709_raw.all.mb56.gz 10.3KB Simrad multibeam vendor format
0251_20110613_064054_raw.all.mb56.gz 25.51MB Simrad multibeam vendor format
0252_20110613_074055_raw.all.mb56.gz 1.36MB Simrad multibeam vendor format
0253_20110613_075514_raw.all.mb56.gz 28.51MB Simrad multibeam vendor format
0254_20110613_085808_raw.all.mb56.gz 31.68MB Simrad multibeam vendor format
0255_20110613_100200_raw.all.mb56.gz 26.36MB Simrad multibeam vendor format
0256_20110613_105327_raw.all.mb56.gz 2.03MB Simrad multibeam vendor format
0257_20110613_110821_raw.all.mb56.gz 6.20MB Simrad multibeam vendor format
0258_20110613_113023_raw.all.mb56.gz 2.21MB Simrad multibeam vendor format
0259_20110613_114919_raw.all.mb56.gz 2.23MB Simrad multibeam vendor format
0260_20110613_121325_raw.all.mb56.gz 4.03MB Simrad multibeam vendor format
0261_20110613_123503_raw.all.mb56.gz 174.6KB Simrad multibeam vendor format
0262_20110613_135634_raw.all.mb56.gz 1.75MB Simrad multibeam vendor format
0263_20110613_150614_raw.all.mb56.gz 2.41MB Simrad multibeam vendor format
0264_20110613_160332_raw.all.mb56.gz 4.61MB Simrad multibeam vendor format
0265_20110614_133524_raw.all.mb56.gz 61.98MB Simrad multibeam vendor format
0266_20110614_143524_raw.all.mb56.gz 52.37MB Simrad multibeam vendor format
0267_20110614_153525_raw.all.mb56.gz 27.44MB Simrad multibeam vendor format
0268_20110614_163525_raw.all.mb56.gz 11.13MB Simrad multibeam vendor format
0269_20110614_171324_raw.all.mb56.gz 20.25MB Simrad multibeam vendor format
0270_20110614_181325_raw.all.mb56.gz 22.39MB Simrad multibeam vendor format
0271_20110614_191325_raw.all.mb56.gz 6.34MB Simrad multibeam vendor format
0272_20110614_194355_raw.all.mb56.gz 25.78MB Simrad multibeam vendor format
0273_20110614_204356_raw.all.mb56.gz 7.44MB Simrad multibeam vendor format
0274_20110614_205400_raw.all.mb56.gz 12.71MB Simrad multibeam vendor format
0275_20110614_222735_raw.all.mb56.gz 13.29MB Simrad multibeam vendor format
0276_20110614_232735_raw.all.mb56.gz 0.80MB Simrad multibeam vendor format
0277_20110614_233644_raw.all.mb56.gz 15.28MB Simrad multibeam vendor format
0278_20110615_003645_raw.all.mb56.gz 0.55MB Simrad multibeam vendor format
0279_20110615_004433_raw.all.mb56.gz 16.48MB Simrad multibeam vendor format
0280_20110615_013416_raw.all.mb56.gz 2.72MB Simrad multibeam vendor format
0281_20110615_015006_raw.all.mb56.gz 25.02MB Simrad multibeam vendor format
0282_20110615_025006_raw.all.mb56.gz 1.14MB Simrad multibeam vendor format
0283_20110615_025601_raw.all.mb56.gz 22.79MB Simrad multibeam vendor format
0284_20110615_034340_raw.all.mb56.gz 6.57MB Simrad multibeam vendor format

Metadata Files: 2

Files File Size Description
NF-11-04-NC_Multibeam.xml NCEI created ISO metadata
NF-11-04-NC_Multibeam_COLLECTION_UNRESOLVED.xml 63.5KB XML metadata file

Ancillary Files: 1

Files File Size Description
NF1104_Master.svp.gz 2.1KB Sound Speed Profiles (SSP or SVP)